CAPE
nan nan nan nan nan nan nan nan nan nan nan nan nan nan nan nan nan nan nan nan nan nan nan nan nan nan nan nan nan nan 1 2 4 4 7 10 12 12 14 15 15 17 19 21 21 23 24 26 26 31 34 40 43 43 47 52 52 56 63 66 66 71 72 74 74 77 77 80 76 76 70 71 78 78 87 101 114 114 125 126 126 137 154 176 176 197
nan nan nan nan nan nan nan nan nan nan nan nan nan nan nan nan nan nan nan nan nan nan nan nan nan nan nan nan 0 0 2 4 8 8 11 15 18 18 18 20 20 21 22 23 23 25 24 25 25 29 30 33 35 35 40 44 44 49 55 58 58 63 65 67 67 69 69 67 66 66 61 67 83 83 97 112 127 127 134 142 142 157 186 215 215 225
nan nan nan nan nan nan nan nan nan nan nan nan nan nan nan nan nan nan nan nan nan nan nan nan nan nan nan nan 3 3 5 9 13 13 16 19 21 21 23 24 24 24 24 25 25 25 26 26 26 27 28 28 31 31 34 37 37 41 45 49 49 50 55 54 54 59 59 58 56 56 59 70 90 90 104 123 139 139 148 153 153 178 216 243 243 255
nan nan nan nan nan nan nan nan nan nan nan nan nan nan nan nan nan nan nan nan nan nan nan nan nan nan nan 0 4 4 8 13 17 17 18 21 25 25 25 26 26 26 27 29 29 29 28 30 30 29 29 31 30 30 33 35 35 39 42 44 44 46 47 47 47 49 52 54 54 54 64 81 97 97 109 129 149 149 158 170 170 190 220 249 249 262
nan nan nan nan nan nan nan nan nan nan nan nan nan nan nan nan nan nan nan nan nan nan 0 0 0 nan nan nan 2 2 10 14 19 19 22 26 27 27 28 28 28 29 30 33 33 34 35 35 35 33 33 33 35 35 35 39 39 40 42 44 44 46 47 50 50 51 54 56 61 61 72 85 98 98 112 139 157 157 172 187 187 211 235 253 253 262
nan nan nan nan nan nan nan nan nan nan nan nan nan nan nan nan nan nan nan nan nan nan nan 0 0 0 nan nan 5 5 11 16 22 22 25 27 29 29 31 32 32 35 35 36 36 38 39 37 37 40 37 39 40 40 41 44 44 42 45 46 46 48 52 57 57 58 59 62 66 66 73 82 89 89 106 130 153 153 178 194 194 217 249 262 262 269
nan nan nan nan nan nan nan nan nan nan nan nan nan nan nan nan nan nan nan nan nan nan nan nan nan nan 1 3 8 8 14 19 24 24 24 26 29 29 31 31 31 35 34 37 37 40 41 40 40 39 40 42 43 43 43 46 46 44 45 47 47 52 56 59 59 61 59 65 64 64 68 77 81 81 95 112 136 136 165 187 187 208 249 270 270 277
nan nan nan nan nan nan nan nan nan nan nan nan nan nan nan nan nan nan 0 6 6 8 3 1 1 2 6 15 23 23 15 8 10 10 14 20 23 23 25 32 32 36 41 43 43 44 44 44 44 45 47 48 51 51 50 48 48 47 48 53 53 54 55 58 58 62 62 61 64 64 66 70 71 71 76 84 104 104 120 146 146 172 192 217 217 236
nan nan nan nan nan nan nan nan nan nan nan nan nan nan nan nan nan nan 0 0 0 3 2 2 2 2 3 7 14 14 17 16 13 13 17 10 10 10 19 33 33 40 43 44 44 44 45 44 44 46 47 48 48 48 46 42 42 39 40 45 45 49 51 56 56 61 62 63 66 66 68 68 70 70 72 79 91 91 103 119 119 140 169 188 188 213
nan nan nan nan nan nan nan nan nan nan nan 0 0 0 2 0 nan nan 1 1 1 1 1 2 2 1 1 3 9 9 13 20 36 36 38 23 37 37 29 26 26 28 39 41 41 43 43 41 41 40 39 39 39 39 38 37 37 33 34 38 38 43 48 51 51 58 59 63 65 65 68 70 70 70 75 79 88 88 95 102 102 110 134 163 163 187
nan nan nan nan nan nan nan nan nan nan nan nan nan nan nan 0 1 1 0 0 0 0 1 2 2 3 3 6 15 15 12 9 10 10 22 24 24 24 25 25 25 27 30 31 31 30 29 31 31 32 34 35 37 37 34 30 30 28 31 34 34 42 46 50 50 55 61 64 65 65 64 66 72 72 72 76 80 80 86 86 86 89 105 125 125 158
nan nan nan nan nan nan nan nan nan nan nan nan nan nan nan 0 7 7 1 nan nan 0 1 2 2 4 6 7 8 8 9 7 6 6 8 12 14 14 14 14 14 13 15 19 19 19 25 26 26 30 28 29 30 30 30 27 27 29 31 36 36 40 46 50 50 55 59 62 63 63 63 64 65 65 69 70 75 75 76 82 82 84 92 104 104 132
nan nan nan nan nan nan nan nan nan nan nan nan nan nan nan nan 2 2 4 2 2 1 1 1 1 3 6 6 3 3 5 8 7 7 8 6 7 7 8 9 9 8 8 8 8 10 19 24 24 25 23 22 25 25 28 28 28 30 31 35 35 41 44 48 48 51 59 61 62 62 59 62 65 65 66 70 73 73 77 79 79 83 92 102 102 117
nan nan nan nan nan nan nan nan nan nan nan nan nan nan nan 0 1 1 2 2 2 1 3 3 3 3 2 5 6 6 7 6 8 8 6 6 7 7 9 10 10 6 5 3 3 3 13 14 14 12 19 20 23 23 26 27 27 30 30 32 32 37 43 46 46 51 56 58 60 60 63 65 65 65 70 71 74 74 78 81 81 84 93 103 103 113
nan nan nan nan nan nan nan nan nan nan nan nan nan nan nan nan 1 1 2 2 2 3 4 5 5 5 3 4 8 8 8 13 13 13 9 8 9 9 10 11 11 11 6 4 4 5 11 8 8 6 9 15 17 17 22 25 25 27 25 28 28 33 38 43 43 49 55 59 64 64 70 74 76 76 74 74 72 72 73 75 75 82 87 95 95 104
nan nan nan nan nan nan nan nan nan nan nan nan 0 0 0 1 1 1 2 4 4 3 4 2 2 3 6 5 4 4 1 9 18 18 14 9 13 13 12 7 7 8 7 3 3 2 4 4 4 7 9 12 15 15 19 26 26 25 26 27 27 30 34 40 40 46 53 62 70 70 78 79 80 80 76 72 68 68 63 65 65 70 77 87 87 92
0 nan nan nan nan nan nan nan nan nan nan nan 0 0 2 4 2 2 3 3 3 6 12 3 3 0 4 4 11 11 4 4 21 21 15 9 7 7 4 3 3 8 7 3 3 2 3 3 3 2 5 15 18 18 18 22 22 23 25 27 27 32 35 40 40 45 51 63 73 73 74 77 73 73 73 67 59 59 57 60 60 62 69 74 74 82
1 0 0 nan nan nan nan nan nan nan 2 0 1 1 4 6 6 6 6 3 3 10 11 4 4 0 nan 3 8 8 7 4 20 20 16 9 2 2 2 1 1 3 4 3 3 4 3 4 4 5 8 18 21 21 23 23 23 25 27 31 31 34 35 40 40 45 52 65 71 71 73 70 72 72 69 66 62 62 61 61 61 63 66 71 71 79
1 1 1 0 0 0 0 nan 0 0 2 2 3 3 7 9 5 5 2 3 3 9 3 nan nan 1 0 3 3 3 6 5 15 15 9 7 1 1 4 0 0 6 4 4 4 5 5 6 6 13 17 18 23 23 24 23 23 26 28 32 32 33 35 37 37 46 58 66 72 72 73 73 72 72 71 73 72 72 73 77 77 75 72 72 72 75
2 2 3 1 1 1 1 0 1 1 3 6 9 9 7 8 4 4 3 2 2 2 3 0 0 1 3 7 5 5 6 7 13 13 6 6 3 3 2 2 2 3 2 4 4 4 5 5 5 7 11 17 21 21 22 25 25 25 27 30 30 31 32 41 41 52 67 72 76 76 74 75 74 74 71 78 79 79 84 87 87 87 88 87 87 90
2 3 2 3 3 3 3 1 1 1 4 11 13 13 10 7 7 7 6 1 1 2 2 8 8 8 4 2 4 4 7 8 9 9 3 3 2 2 2 3 3 2 2 2 2 3 5 7 7 7 11 17 20 20 22 23 23 24 28 30 30 31 37 48 48 61 73 77 75 75 74 76 76 76 77 81 84 84 91 97 97 100 106 105 105 109
3 3 2 5 5 5 6 3 7 7 14 25 12 12 6 2 1 1 4 2 2 3 8 14 14 15 6 5 4 4 8 8 8 8 2 1 1 1 2 3 3 1 2 1 1 2 4 4 4 3 11 19 20 20 24 26 26 28 29 30 30 34 45 56 56 66 72 72 71 71 71 75 78 78 85 88 94 94 100 106 106 111 115 117 117 127
4 4 2 5 5 6 7 8 12 12 17 23 8 8 0 nan nan nan 0 3 3 9 25 14 14 6 7 6 7 7 6 1 1 1 0 1 2 2 1 0 0 nan 0 nan nan 1 3 2 2 3 12 22 21 21 25 25 25 28 31 34 34 39 50 60 60 66 70 68 72 72 73 76 83 83 90 95 102 102 107 110 110 110 112 113 113 117
6 5 5 4 4 8 9 7 9 9 11 12 6 6 2 6 10 10 46 33 33 16 3 0 0 2 4 6 3 3 3 0 nan nan nan 1 2 2 1 nan nan nan 0 nan nan 0 2 2 2 2 7 16 21 21 25 25 25 28 32 38 38 46 57 60 60 63 65 65 68 68 71 77 78 78 83 87 87 87 91 100 100 110 109 102 102 96
6 5 5 5 5 17 9 5 10 10 9 4 3 3 12 40 44 44 21 4 4 3 3 2 2 1 3 6 2 2 2 1 0 0 0 0 3 3 2 1 1 nan 0 nan nan 1 1 0 0 1 4 9 19 19 24 27 27 31 37 45 45 54 59 60 60 60 62 66 67 67 66 66 65 65 67 68 78 78 91 106 106 111 89 76 76 67
11 10 9 10 10 24 26 28 33 33 37 35 61 61 59 39 7 7 1 2 2 1 1 1 1 1 1 1 nan nan nan 1 1 1 1 0 nan nan 1 1 1 0 0 0 0 3 0 nan nan 1 0 3 16 16 22 29 29 36 45 51 51 57 58 57 57 58 56 55 54 54 51 49 55 55 58 68 81 81 99 97 97 84 66 56 56 54
22 24 29 37 37 42 50 62 76 76 97 105 67 67 25 14 7 7 3 1 1 0 0 0 0 2 2 1 nan nan nan 2 0 0 nan nan 1 1 0 1 1 nan nan nan nan 2 2 1 1 0 1 1 8 8 24 31 31 40 47 48 48 51 51 48 48 47 45 45 41 41 39 42 47 47 55 63 77 77 88 73 73 62 57 47 47 56
24 28 35 41 41 48 55 70 89 89 106 100 83 83 47 19 9 9 3 2 2 1 1 0 0 1 1 1 nan nan nan 1 0 0 nan 0 1 1 0 0 0 nan nan 0 0 4 9 3 3 nan 0 1 5 5 20 32 32 36 39 40 40 39 41 43 43 43 40 36 33 33 33 37 43 43 49 56 62 62 62 53 53 50 46 34 34 25
23 26 33 40 40 53 68 83 91 91 87 80 72 72 43 9 4 4 2 2 2 0 1 1 1 1 1 1 0 0 0 1 1 1 0 2 2 2 0 nan nan nan nan 2 2 3 2 1 1 0 0 2 5 5 12 23 23 24 29 33 33 38 37 38 38 37 36 31 31 31 32 35 38 38 41 45 50 50 45 45 45 45 36 26 26 19
22 20 27 45 45 59 72 71 66 66 62 54 43 43 17 3 2 2 0 2 2 1 1 1 1 2 1 1 1 1 1 0 1 1 2 0 0 0 nan nan nan 0 nan 1 1 0 nan 0 0 0 0 3 3 3 4 9 9 11 18 30 30 29 30 29 29 30 30 30 30 30 31 34 34 34 36 38 38 38 38 37 37 35 23 17 17 14
22 25 42 51 51 46 35 30 26 26 25 20 12 12 4 1 nan nan 0 1 1 0 1 1 1 2 2 1 1 1 0 nan 3 3 1 0 1 1 0 nan nan 0 nan 1 1 1 0 nan nan 0 1 2 3 3 2 1 1 4 5 12 12 19 25 23 23 26 28 29 30 30 32 32 32 32 32 33 34 34 35 38 38 31 15 12 12 13
49 22 6 3 3 2 1 nan nan nan nan nan nan nan nan nan nan nan 0 1 1 1 0 3 3 5 3 1 1 1 1 1 3 3 4 1 4 4 5 4 4 4 2 4 4 0 1 1 1 nan nan nan nan nan 2 4 4 4 4 4 4 4 12 19 19 20 18 25 27 27 29 30 33 33 34 37 41 41 40 38 38 35 18 11 11 14
13 5 3 1 1 0 nan nan nan nan nan nan nan nan nan nan 1 1 2 2 2 1 2 4 4 5 3 3 1 1 3 2 7 7 10 2 3 3 7 7 7 6 4 3 3 2 0 1 1 nan 0 0 1 1 1 4 4 5 4 4 4 2 8 13 13 10 14 17 20 20 29 30 39 39 40 42 41 41 41 39 39 39 35 11 11 13
4 5 1 nan nan nan nan nan nan nan nan nan nan nan nan 0 2 2 3 1 1 2 6 6 6 6 4 4 1 1 2 1 7 7 8 2 4 4 10 9 9 6 6 7 7 7 0 0 0 nan nan 0 2 2 1 2 2 3 4 4 4 1 3 4 4 4 7 8 7 7 13 18 39 39 36 39 39 39 40 40 40 39 37 24 24 15
1 0 nan nan nan nan nan nan nan nan nan nan nan nan 0 1 1 1 2 3 3 3 6 9 9 6 5 4 3 3 3 1 7 7 12 3 3 3 10 9 9 7 10 11 11 6 0 2 2 5 2 1 1 1 1 1 1 2 2 3 3 2 2 3 3 5 4 4 6 6 5 10 17 17 23 31 37 37 41 40 40 37 38 41 41 29
nan nan nan nan nan nan nan nan nan nan nan nan nan nan 0 1 1 1 2 4 4 8 11 9 9 7 6 3 2 2 3 3 10 10 16 7 4 4 7 13 13 18 12 8 8 4 0 2 2 6 6 2 0 0 0 0 0 1 1 1 1 2 2 3 3 3 3 7 9 9 8 8 13 13 15 33 40 40 39 36 36 34 34 36 36 35
nan nan nan nan nan nan nan nan nan nan nan nan 0 0 1 1 2 2 2 9 9 8 6 11 11 11 17 6 7 7 7 9 14 14 23 13 7 7 9 17 17 22 3 2 2 2 2 5 5 6 4 2 0 0 0 1 1 1 0 1 1 0 1 2 2 4 3 7 8 8 8 13 15 15 23 36 32 32 32 33 33 31 34 35 35 37
nan nan nan nan nan nan nan nan nan nan nan 0 1 1 1 3 6 6 3 9 9 15 8 5 5 7 24 28 26 26 25 30 36 36 34 23 13 13 10 12 12 14 6 3 3 4 2 1 1 4 1 0 2 2 2 1 1 1 1 1 1 1 1 1 1 3 3 6 10 10 15 15 10 10 13 15 10 10 8 8 8 21 29 29 29 34
nan nan nan nan nan nan nan nan nan nan 0 0 0 0 1 2 6 6 6 6 6 7 7 7 7 4 16 27 29 29 33 35 36 36 34 28 17 17 12 7 7 11 11 7 7 3 2 0 0 1 1 0 2 2 2 1 1 0 1 1 1 1 2 3 3 3 5 5 11 11 12 11 8 8 7 6 4 4 4 3 3 12 13 9 9 23
nan nan nan nan nan nan nan 0 0 0 0 0 1 1 2 1 4 4 8 4 4 5 8 10 10 6 8 12 18 18 23 25 34 34 35 32 20 20 8 5 5 6 7 6 6 4 3 2 2 4 3 nan 1 1 1 1 1 1 4 1 1 0 1 3 3 3 2 2 5 5 4 5 6 6 6 6 6 6 4 3 3 7 12 4 4 5
nan nan nan nan nan nan 0 0 0 0 0 0 1 1 1 2 1 1 1 4 4 6 5 8 8 5 7 7 11 11 11 18 26 26 27 28 22 22 12 6 6 6 4 6 6 6 7 5 5 5 4 1 1 1 1 2 2 7 8 2 2 0 2 4 4 3 1 3 5 5 8 9 11 11 8 8 5 5 6 5 5 7 10 5 5 2
0 0 0 nan nan 0 0 0 1 1 1 1 2 2 1 1 2 2 2 2 2 3 4 6 6 6 6 2 5 5 8 14 19 19 13 10 11 11 13 9 9 4 4 6 6 10 10 8 8 8 3 0 nan nan 0 2 2 4 5 1 1 2 4 4 4 2 1 5 6 6 11 7 3 3 5 4 3 3 6 7 7 16 15 5 5 3
0 0 0 0 0 0 0 2 2 2 1 1 1 1 1 1 2 2 3 3 3 4 6 7 7 8 6 4 4 4 9 17 22 22 16 9 8 8 13 11 11 7 4 3 3 9 13 11 11 3 1 0 nan nan 1 3 3 2 2 2 2 1 nan 1 1 1 2 3 2 2 5 2 1 1 1 1 1 1 3 10 10 22 21 4 4 4
1 0 0 0 0 0 1 1 1 1 1 1 1 1 1 1 3 3 4 4 4 6 6 7 7 6 4 3 5 5 7 10 16 16 13 12 8 8 10 10 10 9 8 4 4 5 7 6 6 1 1 nan nan nan 1 2 2 1 1 2 2 1 nan 1 1 2 2 3 3 3 3 2 1 1 1 2 1 1 1 2 2 0 10 6 6 4
0 nan nan 0 0 0 1 1 1 1 1 1 1 1 1 2 5 5 5 4 4 5 6 6 6 6 4 4 3 3 6 7 7 7 8 10 12 12 9 8 8 9 10 9 9 6 4 3 3 1 1 0 0 0 0 0 0 1 3 4 4 2 1 3 3 2 2 1 1 1 3 3 1 1 1 1 0 0 0 0 0 1 2 3 3 3
0 0 0 0 0 0 1 1 1 1 1 1 1 1 1 2 4 4 5 4 4 4 5 7 7 5 4 4 4 4 5 6 4 4 3 6 8 8 9 9 9 9 10 12 12 12 6 4 4 3 2 2 1 1 0 1 1 0 1 3 3 1 0 1 1 1 0 1 1 1 3 4 2 2 1 1 nan nan 0 1 1 1 1 2 2 2
1 1 1 1 1 1 1 1 1 1 1 1 0 0 1 3 3 3 4 4 4 4 5 8 8 5 5 6 5 5 4 5 3 3 3 3 5 5 6 10 10 14 12 12 12 12 7 9 9 7 3 1 1 1 1 1 1 1 0 0 0 0 0 1 1 1 0 0 0 0 5 4 2 2 3 0 nan nan 0 1 1 1 2 2 2 2
2 1 2 1 1 1 1 1 1 1 0 0 0 0 1 2 2 2 3 4 4 4 7 5 5 5 6 5 5 5 5 4 4 4 4 4 6 6 6 6 6 8 9 13 13 15 11 9 9 10 9 3 1 1 0 0 0 1 0 0 0 0 0 1 1 1 1 1 4 4 6 3 2 2 2 0 0 0 1 1 1 1 1 2 2 2
3 2 2 1 1 1 1 1 0 0 0 nan 0 0 1 4 12 12 3 4 4 4 5 4 4 5 6 6 5 5 8 6 3 3 3 3 4 4 4 4 4 4 5 8 8 8 7 9 9 9 5 2 1 1 0 0 0 0 1 2 2 1 0 0 0 1 1 1 5 5 7 3 2 2 2 1 1 1 1 1 1 1 2 1 1 1
2 2 3 2 2 1 1 1 0 0 0 0 0 0 1 1 2 2 2 3 3 3 4 6 6 5 6 6 6 6 5 4 4 4 3 4 4 4 3 3 3 4 4 4 4 4 3 4 4 3 2 0 0 0 0 nan nan 0 2 1 1 0 0 0 0 2 2 2 4 4 8 5 3 3 1 2 1 1 1 1 1 0 1 2 2 2
3 2 2 2 2 2 2 0 0 0 0 1 1 1 1 1 1 1 1 2 2 2 3 4 4 6 6 7 6 6 6 5 4 4 4 3 3 3 3 3 3 3 3 2 2 2 1 0 0 nan nan 0 0 0 nan 0 0 0 0 0 0 0 0 0 0 3 6 3 3 3 5 4 3 3 2 1 2 2 1 0 0 0 1 2 2 3
CIN
nan nan nan nan nan nan nan nan nan nan nan nan nan nan nan nan nan nan nan nan nan nan nan nan nan nan nan nan nan nan -0 -0 -0 -0 -0 -0 -0 -0 -0 -0 -0 -0 -0 -0 -0 -0 -0 -0 -0 -0 -0 -0 -0 -0 -0 -0 -0 -0 -0 -0 -0 -0 -0 -0 -0 -0 -0 -0 -0 -0 -0 -0 -0 -0 -0 -0 -0 -0 -0 -0 -0 -0 -0 -0 -0 -0
nan nan nan nan nan nan nan nan nan nan nan nan nan nan nan nan nan nan nan nan nan nan nan nan nan nan nan nan -0 -0 -0 -0 -0 -0 -0 -0 -0 -0 -0 -0 -0 -0 -0 -0 -0 -0 -0 -0 -0 -0 -0 -0 -0 -0 -0 -0 -0 -0 -0 -0 -0 -0 -0 -0 -0 -0 -0 -0 -0 -0 -0 -0 -0 -0 -0 -0 -0 -0 -0 -0 -0 -0 -0 -0 -0 -0
nan nan nan nan nan nan nan nan nan nan nan nan nan nan nan nan nan nan nan nan nan nan nan nan nan nan nan nan -0 -0 -0 -0 -0 -0 -0 -0 -0 -0 -0 -0 -0 -0 -0 -0 -0 -0 -0 -0 -0 -0 -0 -0 -0 -0 -0 -0 -0 -0 -0 -0 -0 -0 -0 -0 -0 -0 -0 -0 -0 -0 -0 -0 -0 -0 -0 -0 -0 -0 -0 -0 -0 -0 -0 -0 -0 -0
nan nan nan nan nan nan nan nan nan nan nan nan nan nan nan nan nan nan nan nan nan nan nan nan nan nan nan -0 -0 -0 -0 -0 -0 -0 -0 -0 -0 -0 -0 -0 -0 -0 -0 -0 -0 -0 -0 -0 -0 -0 -0 -0 -0 -0 -0 -0 -0 -0 -0 -0 -0 -0 -0 -0 -0 -0 -0 -0 -0 -0 -0 -0 -0 -0 -0 -0 -0 -0 -0 -0 -0 -0 -0 -0 -0 -0
nan nan nan nan nan nan nan nan nan nan nan nan nan nan nan nan nan nan nan nan nan nan -0 -0 -0 nan nan nan -0 -0 -0 -0 -0 -0 -0 -0 -0 -0 -0 -0 -0 -0 -0 -0 -0 -0 -0 -0 -0 -0 -0 -0 -0 -0 -0 -0 -0 -0 -0 -0 -0 -0 -0 -0 -0 -0 -0 -0 -0 -0 -0 -0 -0 -0 -0 -0 -0 -0 -0 -0 -0 -0 -0 -0 -0 -0
nan nan nan nan nan nan nan nan nan nan nan nan nan nan nan nan nan nan nan nan nan nan nan -0 -0 -0 nan nan -0 -0 -0 -0 -0 -0 -0 -0 -0 -0 -0 -0 -0 -0 -0 -0 -0 -0 -0 -0 -0 -0 -0 -0 -0 -0 -0 -0 -0 -0 -0 -0 -0 -0 -0 -0 -0 -0 -0 -0 -0 -0 -0 -0 -0 -0 -0 -0 -0 -0 -0 -0 -0 -0 -0 -0 -0 -0
nan nan nan nan nan nan nan nan nan nan nan nan nan nan nan nan nan nan nan nan nan nan nan nan nan nan -0 -0 -0 -0 -0 -0 -0 -0 -0 -0 -0 -0 -0 -0 -0 -0 -0 -0 -0 -0 -0 -0 -0 -0 -0 -0 -0 -0 -0 -0 -0 -0 -0 -0 -0 -0 -0 -0 -0 -0 -0 -0 -0 -0 -0 -0 -0 -0 -0 -0 -0 -0 -0 -0 -0 -0 -0 -0 -0 -0
nan nan nan nan nan nan nan nan nan nan nan nan nan nan nan nan nan nan -0 -0 -0 -3 -1 -0 -0 -0 -0 -7 -15 -15 -0 -0 -0 -0 -0 -0 -0 -0 -0 -0 -0 -0 -0 -0 -0 -0 -0 -0 -0 -0 -0 -0 -0 -0 -0 -0 -0 -0 -0 -0 -0 -0 -0 -0 -0 -0 -0 -0 -0 -0 -0 -0 -0 -0 -0 -0 -0 -0 -0 -0 -0 -0 -0 -0 -0 -0
nan nan nan nan nan nan nan nan nan nan nan nan nan nan nan nan nan nan -0 -0 -0 -0 -0 -0 -0 -0 -0 -4 -14 -14 -0 -0 -0 -0 -0 -0 -0 -0 -0 -0 -0 -0 -0 -0 -0 -0 -0 -0 -0 -0 -0 -0 -0 -0 -0 -0 -0 -0 -0 -0 -0 -0 -0 -0 -0 -0 -0 -0 -0 -0 -0 -0 -0 -0 -0 -0 -0 -0 -0 -0 -0 -0 -0 -0 -0 -0
nan nan nan nan nan nan nan nan nan nan nan -1 -0 -0 -0 -0 nan nan -0 -0 -0 -0 -0 -0 -0 -0 -0 -8 -11 -11 -0 -0 -0 -0 -0 -0 -0 -0 -0 -0 -0 -0 -0 -0 -0 -0 -0 -0 -0 -0 -0 -0 -0 -0 -0 -0 -0 -0 -0 -0 -0 -0 -0 -0 -0 -0 -0 -0 -0 -0 -0 -0 -0 -0 -0 -0 -0 -0 -0 -0 -0 -0 -0 -0 -0 -0
nan nan nan nan nan nan nan nan nan nan nan nan nan nan nan -0 -0 -0 -0 -0 -0 -0 -0 -0 -0 -0 -0 -0 -0 -0 -0 -0 -0 -0 -0 -0 -0 -0 -0 -0 -0 -0 -0 -0 -0 -0 -0 -0 -0 -0 -0 -0 -0 -0 -0 -0 -0 -0 -0 -0 -0 -0 -0 -0 -0 -0 -0 -0 -0 -0 -0 -0 -0 -0 -0 -0 -0 -0 -0 -0 -0 -0 -0 -0 -0 -0
nan nan nan nan nan nan nan nan nan nan nan nan nan nan nan -0 -0 -0 -0 nan nan -0 -0 -0 -0 -6 -14 -5 -0 -0 -0 -0 -0 -0 -0 -0 -0 -0 -0 -0 -0 -0 -0 -0 -0 -0 -0 -0 -0 -0 -0 -0 -0 -0 -0 -0 -0 -0 -0 -0 -0 -0 -0 -0 -0 -0 -0 -0 -0 -0 -0 -0 -0 -0 -0 -0 -0 -0 -0 -0 -0 -0 -0 -0 -0 -0
nan nan nan nan nan nan nan nan nan nan nan nan nan nan nan nan -0 -0 -0 -0 -0 -0 -0 -0 -0 -6 -11 -17 -15 -15 -0 -0 -0 -0 -0 -0 -15 -15 -0 -0 -0 -0 -0 -0 -0 -0 -0 -0 -0 -0 -0 -0 -0 -0 -0 -0 -0 -0 -0 -0 -0 -0 -0 -0 -0 -0 -0 -0 -0 -0 -0 -0 -0 -0 -0 -0 -0 -0 -0 -0 -0 -0 -0 -0 -0 -0
nan nan nan nan nan nan nan nan nan nan nan nan nan nan nan -0 -0 -0 -0 -0 -0 -0 -1 -1 -1 -6 -13 -10 -18 -18 -4 -0 -0 -0 -0 -0 -25 -25 -7 -0 -0 -0 -0 -5 -5 -0 -0 -0 -0 -0 -0 -0 -0 -0 -0 -0 -0 -0 -0 -0 -0 -0 -0 -0 -0 -0 -0 -0 -0 -0 -0 -0 -0 -0 -0 -0 -0 -0 -0 -0 -0 -0 -0 -0 -0 -0
nan nan nan nan nan nan nan nan nan nan nan nan nan nan nan nan -0 -0 -0 -0 -0 -0 -0 -3 -3 -0 -6 -8 -14 -14 -11 -0 -0 -0 -0 -0 -12 -12 -12 -0 -0 -0 -0 -0 -0 -0 -0 -0 -0 -0 -0 -0 -0 -0 -0 -0 -0 -0 -0 -0 -0 -0 -0 -0 -0 -0 -0 -0 -0 -0 -0 -0 -0 -0 -0 -0 -0 -0 -0 -0 -0 -0 -0 -0 -0 -0
nan nan nan nan nan nan nan nan nan nan nan nan -0 -0 -0 -0 -0 -0 -0 -0 -0 -3 -3 -8 -8 -4 -0 -0 -13 -13 -20 -0 -0 -0 -0 -0 -3 -3 -11 -4 -4 -0 -0 -0 -0 -0 -0 -0 -0 -0 -0 -0 -0 -0 -0 -0 -0 -0 -0 -0 -0 -0 -0 -0 -0 -0 -0 -0 -0 -0 -0 -0 -0 -0 -0 -0 -0 -0 -0 -0 -0 -0 -0 -0 -0 -0
-0 nan nan nan nan nan nan nan nan nan nan nan -0 -0 -0 -0 -0 -0 -5 -5 -5 -4 -0 -6 -6 -6 -0 -0 -0 -0 -21 -8 -0 -0 -0 -0 -0 -0 -16 -6 -6 -0 -0 -0 -0 -0 -0 -0 -0 -0 -0 -0 -0 -0 -0 -0 -0 -0 -0 -0 -0 -0 -0 -0 -0 -0 -0 -0 -0 -0 -0 -0 -0 -0 -0 -0 -0 -0 -0 -0 -0 -0 -0 -0 -0 -0
-0 -0 -0 nan nan nan nan nan nan nan -0 -0 -0 -0 -0 -0 -4 -4 -3 -9 -9 -4 -3 -6 -6 -6 nan -3 -0 -0 -13 -11 -0 -0 -1 -3 -13 -13 -24 -13 -13 -1 -0 -0 -0 -0 -0 -0 -0 -0 -0 -0 -0 -0 -0 -0 -0 -0 -0 -0 -0 -0 -0 -0 -0 -0 -0 -0 -0 -0 -0 -0 -0 -0 -0 -0 -0 -0 -0 -0 -0 -0 -0 -0 -0 -0
-0 -0 -0 -0 -0 -0 -0 nan -0 -0 -0 -0 -0 -0 -0 -0 -5 -5 -11 -11 -11 -4 -3 nan nan -7 -8 -7 -10 -10 -11 -13 -5 -5 -6 -5 -9 -9 -7 -10 -10 -0 -0 -0 -0 -0 -0 -0 -0 -0 -0 -0 -0 -0 -0 -0 -0 -0 -0 -0 -0 -0 -0 -0 -0 -0 -0 -0 -0 -0 -0 -0 -0 -0 -0 -0 -0 -0 -0 -0 -0 -0 -0 -0 -0 -0
-0 -0 -0 -0 -0 -0 -0 -0 -0 -0 -0 -0 -0 -0 -0 -0 -4 -4 -12 -12 -12 -7 -6 -4 -4 -7 -11 -7 -8 -8 -10 -15 -6 -6 -6 -3 -2 -2 -0 -0 -0 -0 -0 -0 -0 -0 -0 -0 -0 -0 -0 -0 -0 -0 -0 -0 -0 -0 -0 -0 -0 -0 -0 -0 -0 -0 -0 -0 -0 -0 -0 -0 -0 -0 -0 -0 -0 -0 -0 -0 -0 -0 -0 -0 -0 -0
-0 -0 -0 -0 -0 -0 -0 -0 -0 -0 -0 -0 -0 -0 -0 -3 -3 -3 -6 -8 -8 -4 -5 -1 -1 -4 -11 -12 -11 -11 -16 -12 -4 -4 -7 -3 -0 -0 -0 -0 -0 -0 -0 -0 -0 -0 -3 -1 -1 -10 -0 -0 -0 -0 -0 -0 -0 -0 -0 -0 -0 -0 -0 -0 -0 -0 -0 -0 -0 -0 -0 -0 -0 -0 -0 -0 -0 -0 -0 -0 -0 -0 -0 -0 -0 -0
-0 -0 -0 -0 -0 -0 -0 -0 -0 -0 -0 -0 -1 -1 -2 -6 -5 -5 -4 -4 -4 -2 -2 -3 -3 -5 -8 -10 -12 -12 -16 -11 -3 -3 -3 -2 -0 -0 -0 -0 -0 -0 -0 -0 -0 -4 -2 -0 -0 -0 -0 -0 -0 -0 -0 -0 -0 -0 -0 -0 -0 -0 -0 -0 -0 -0 -0 -0 -0 -0 -0 -0 -0 -0 -0 -0 -0 -0 -0 -0 -0 -0 -0 -0 -0 -0
-0 -0 -0 -0 -0 -0 -0 -0 -0 -0 -0 -0 -6 -6 -11 nan nan nan -3 -1 -1 -1 -1 -4 -4 -9 -8 -11 -12 -12 -9 -11 -5 -5 -0 -0 -0 -0 -0 -0 -0 nan -0 nan nan -1 -0 -0 -0 -0 -0 -0 -0 -0 -0 -0 -0 -0 -0 -0 -0 -0 -0 -0 -0 -0 -0 -0 -0 -0 -0 -0 -0 -0 -0 -0 -0 -0 -0 -0 -0 -0 -0 -0 -0 -0
-0 -0 -0 -0 -0 -0 -0 -0 -0 -0 -0 -0 -5 -5 -8 -3 -0 -0 -0 -1 -1 -8 -12 -20 -20 -12 -9 -2 -0 -0 -2 -8 nan nan nan -0 -0 -0 -0 nan nan nan -0 nan nan -0 -0 -0 -0 -0 -0 -0 -0 -0 -0 -0 -0 -0 -0 -0 -0 -0 -0 -0 -0 -0 -0 -0 -0 -0 -0 -0 -0 -0 -0 -0 -0 -0 -0 -0 -0 -0 -0 -0 -0 -0
-0 -0 -0 -0 -0 -1 -0 -0 -0 -0 -3 -8 -5 -5 -1 -0 -0 -0 -0 -3 -3 -9 -15 -11 -11 -5 -0 -0 -0 -0 -0 -0 -6 -6 -1 -1 -0 -0 -0 -0 -0 nan -0 nan nan -0 -0 -1 -1 -0 -5 -0 -0 -0 -0 -0 -0 -0 -0 -0 -0 -0 -0 -0 -0 -0 -0 -0 -0 -0 -0 -0 -0 -0 -0 -0 -0 -0 -0 -0 -0 -0 -0 -0 -0 -0
-0 -0 -0 -0 -0 -0 -0 -0 -0 -0 -0 -1 -0 -0 -0 -1 -3 -3 -15 -14 -14 -9 -6 -0 -0 -0 -0 -0 nan nan nan -6 -3 -3 -0 -1 nan nan -0 -0 -0 -0 -0 -1 -1 -0 -1 nan nan -0 -0 -0 -0 -0 -0 -0 -0 -0 -0 -0 -0 -0 -0 -0 -0 -0 -0 -0 -0 -0 -0 -0 -0 -0 -0 -0 -0 -0 -0 -0 -0 -0 -0 -0 -0 -0
-0 -0 -0 -0 -0 -0 -0 -0 -0 -0 -0 -0 -0 -0 -0 -0 -2 -2 -6 -3 -3 -3 -1 -0 -0 -0 -0 -0 nan nan nan -0 -0 -0 nan nan -0 -0 -0 -0 -0 nan nan nan nan -0 -0 -0 -0 -0 -0 -0 -0 -0 -0 -0 -0 -0 -0 -0 -0 -0 -0 -0 -0 -0 -0 -0 -0 -0 -0 -0 -0 -0 -0 -0 -0 -0 -0 -0 -0 -0 -0 -0 -0 -0
-0 -0 -0 -0 -0 -0 -0 -0 -0 -0 -0 -0 -0 -0 -0 -0 -0 -0 -0 -0 -0 -1 -0 -0 -0 -0 -0 -0 nan nan nan -0 -0 -0 nan -0 -0 -0 -0 -0 -0 nan nan -1 -1 -0 -0 -0 -0 nan -0 -0 -0 -0 -0 -0 -0 -0 -0 -0 -0 -0 -0 -0 -0 -0 -0 -0 -0 -0 -0 -0 -0 -0 -0 -0 -0 -0 -0 -0 -0 -0 -0 -0 -0 -0
-0 -0 -0 -0 -0 -0 -0 -0 -0 -0 -0 -0 -0 -0 -0 -0 -0 -0 -0 -0 -0 -0 -0 -0 -0 -0 -0 -0 -0 -0 -0 -0 -0 -0 -0 -0 -0 -0 -0 nan nan nan nan -1 -1 -0 -0 -0 -0 -0 -0 -0 -0 -0 -0 -0 -0 -0 -0 -0 -0 -0 -0 -0 -0 -0 -0 -0 -0 -0 -0 -0 -0 -0 -0 -0 -0 -0 -0 -0 -0 -0 -0 -0 -0 -0
-0 -0 -0 -0 -0 -0 -0 -0 -0 -0 -0 -0 -0 -0 -0 -0 -0 -0 -0 -0 -0 -0 -0 -0 -0 -0 -0 -0 -0 -0 -0 -0 -0 -0 -0 -0 -0 -0 nan nan nan -0 nan -0 -0 -0 nan -0 -0 -0 -0 -0 -0 -0 -0 -0 -0 -0 -0 -0 -0 -0 -0 -0 -0 -0 -0 -0 -0 -0 -0 -0 -0 -0 -0 -0 -0 -0 -0 -0 -0 -0 -0 -0 -0 -1
-1 -3 -0 -0 -0 -0 -0 -0 -0 -0 -0 -0 -0 -0 -0 -0 nan nan -0 -0 -0 -0 -0 -0 -0 -0 -0 -0 -0 -0 -0 nan -0 -0 -0 -0 -0 -0 -0 nan nan -0 nan -0 -0 -0 -0 nan nan -0 -1 -0 -0 -0 -0 -1 -1 -0 -0 -0 -0 -0 -0 -0 -0 -0 -0 -0 -0 -0 -0 -0 -0 -0 -0 -0 -0 -0 -0 -0 -0 -0 -0 -0 -0 -0
-0 -0 -0 -0 -0 -0 -0 nan nan nan nan nan nan nan nan nan nan nan -0 -0 -0 -0 -0 -0 -0 -0 -0 -0 -0 -0 -0 -0 -0 -0 -0 -0 -0 -0 -0 -0 -0 -0 -2 -1 -1 -1 -1 -1 -1 nan nan nan nan nan -0 -0 -0 -0 -0 -0 -0 -0 -0 -0 -0 -0 -0 -0 -0 -0 -0 -0 -0 -0 -0 -0 -0 -0 -0 -0 -0 -0 -0 -1 -1 -1
-0 -0 -0 -0 -0 -0 nan nan nan nan nan nan nan nan nan nan -0 -0 -0 -0 -0 -0 -0 -0 -0 -0 -0 -0 -0 -0 -0 -0 -0 -0 -0 -0 -0 -0 -0 -0 -0 -0 -1 -1 -1 -1 -2 -0 -0 nan -0 -0 -0 -0 -0 -0 -0 -0 -0 -0 -0 -0 -0 -0 -0 -0 -0 -0 -0 -0 -0 -0 -0 -0 -0 -0 -0 -0 -0 -0 -0 -0 -0 -4 -4 -2
-0 -0 -0 nan nan nan nan nan nan nan nan nan nan nan nan -0 -0 -0 -0 -0 -0 -0 -0 -0 -0 -0 -0 -0 -0 -0 -0 -0 -0 -0 -0 -0 -0 -0 -0 -0 -0 -0 -0 -0 -0 -0 -0 -1 -1 nan nan -0 -0 -0 -0 -0 -0 -0 -0 -0 -0 -0 -0 -0 -0 -0 -0 -0 -0 -0 -0 -0 -0 -0 -0 -0 -0 -0 -0 -0 -0 -0 -0 -0 -0 -0
-0 -0 nan nan nan nan nan nan nan nan nan nan nan nan -0 -0 -0 -0 -0 -0 -0 -0 -0 -0 -0 -0 -0 -0 -0 -0 -0 -0 -0 -0 -0 -0 -0 -0 -0 -0 -0 -0 -0 -0 -0 -0 -0 -0 -0 -0 -0 -0 -0 -0 -0 -0 -0 -0 -0 -0 -0 -0 -0 -0 -0 -0 -0 -0 -0 -0 -0 -0 -0 -0 -0 -0 -0 -0 -0 -0 -0 -0 -0 -0 -0 -0
nan nan nan nan nan nan nan nan nan nan nan nan nan nan -0 -0 -0 -0 -0 -0 -0 -0 -0 -0 -0 -0 -0 -0 -0 -0 -0 -0 -0 -0 -0 -0 -1 -1 -0 -0 -0 -0 -0 -0 -0 -0 -0 -0 -0 -0 -0 -0 -0 -0 -0 -0 -0 -0 -0 -0 -0 -0 -0 -0 -0 -2 -1 -0 -0 -0 -0 -0 -0 -0 -0 -0 -0 -0 -0 -0 -0 -0 -0 -0 -0 -0
nan nan nan nan nan nan nan nan nan nan nan nan -0 -0 -0 -0 -0 -0 -0 -0 -0 -0 -0 -0 -0 -0 -0 -1 -1 -1 -0 -0 -0 -0 -0 -1 -0 -0 -0 -0 -0 -0 -0 -0 -0 -0 -0 -0 -0 -0 -0 -0 -0 -0 -0 -0 -0 -0 -0 -0 -0 -0 -1 -0 -0 -0 -3 -0 -0 -0 -0 -0 -0 -0 -0 -0 -0 -0 -0 -0 -0 -0 -0 -0 -0 -0
nan nan nan nan nan nan nan nan nan nan nan -0 -0 -0 -0 -0 -0 -0 -0 -0 -0 -0 -0 -0 -0 -0 -0 -0 -2 -2 -1 -0 -0 -0 -0 -1 -1 -1 -0 -0 -0 -0 -0 -0 -0 -0 -0 -0 -0 -0 -0 -0 -0 -0 -0 -0 -0 -0 -0 -0 -0 -0 -0 -3 -3 -2 -1 -0 -0 -0 -0 -0 -0 -0 -0 -0 -0 -0 -0 -0 -0 -0 -0 -0 -0 -0
nan nan nan nan nan nan nan nan nan nan -0 -0 -0 -0 -0 -0 -0 -0 -0 -0 -0 -0 -0 -0 -0 -0 -1 -0 -0 -0 -0 -0 -0 -0 -0 -2 -2 -2 -0 -0 -0 -0 -0 -0 -0 -0 -0 -0 -0 -0 -0 -0 -0 -0 -0 -0 -0 -0 -0 -0 -0 -0 -0 -0 -0 -0 -0 -0 -0 -0 -0 -0 -2 -2 -0 -1 -3 -3 -2 -0 -0 -0 -0 -0 -0 -0
nan nan nan nan nan nan nan -0 -0 -0 -0 -0 -0 -0 -0 -0 -0 -0 -0 -0 -0 -0 -0 -0 -0 -0 -0 -0 -0 -0 -0 -2 -0 -0 -0 -1 -2 -2 -0 -0 -0 -0 -0 -0 -0 -0 -0 -0 -0 -0 -0 nan -0 -0 -0 -0 -0 -0 -0 -0 -0 -0 -0 -0 -0 -0 -2 -2 -0 -0 -0 -2 -0 -0 -0 -0 -0 -0 -1 -2 -2 -0 -0 -0 -0 -0
nan nan nan nan nan nan -0 -0 -0 -0 -0 -0 -0 -0 -0 -0 -0 -0 -0 -0 -0 -0 -0 -0 -0 -0 -0 -2 -0 -0 -0 -3 -0 -0 -4 -3 -3 -3 -1 -0 -0 -0 -0 -0 -0 -0 -0 -0 -0 -0 -0 -1 -1 -1 -0 -0 -0 -0 -0 -0 -0 -0 -0 -0 -0 -0 -3 -0 -0 -0 -0 -0 -0 -0 -0 -0 -0 -0 -0 -0 -0 -0 -0 -0 -0 -2
-0 -0 -0 nan nan -0 -0 -0 -0 -0 -0 -0 -0 -0 -0 -0 -0 -0 -0 -0 -0 -0 -0 -0 -0 -0 -0 -1 -0 -0 -2 -1 -5 -5 -12 -14 -11 -11 -4 -0 -0 -0 -0 -0 -0 -0 -0 -0 -0 -0 -0 -1 nan nan -0 -0 -0 -0 -0 -0 -0 -0 -0 -0 -0 -0 -0 -0 -0 -0 -0 -0 -0 -0 -0 -0 -0 -0 -0 -0 -0 -0 -0 -0 -0 -3
-0 -0 -0 -0 -0 -0 -0 -0 -0 -0 -0 -0 -0 -0 -0 -0 -0 -0 -0 -0 -0 -0 -0 -0 -0 -0 -0 -0 -0 -0 -0 -4 -0 -0 -3 -15 -14 -14 -2 -0 -0 -0 -1 -0 -0 -0 -0 -0 -0 -0 -2 -0 nan nan -0 -0 -0 -0 -0 -0 -0 -0 nan -0 -0 -0 -0 -0 -2 -2 -0 -0 -2 -2 -2 -2 -4 -4 -2 -0 -0 -0 -0 -0 -0 -0
-0 -0 -0 -0 -0 -0 -0 -0 -0 -0 -0 -0 -0 -0 -0 -0 -0 -0 -0 -0 -0 -0 -0 -0 -0 -0 -0 -0 -0 -0 -0 -0 -2 -2 -0 -1 -13 -13 -5 -2 -2 -1 -2 -1 -1 -0 -0 -0 -0 -0 -0 nan nan nan -0 -0 -0 -0 -0 -0 -0 -0 nan -0 -0 -0 -0 -0 -0 -0 -1 -3 -6 -6 -4 -2 -2 -2 -4 -3 -3 -6 -0 -0 -0 -0
-0 nan nan -0 -0 -0 -0 -0 -0 -0 -0 -0 -0 -0 -0 -0 -0 -0 -0 -0 -0 -0 -0 -0 -0 -0 -0 -0 -0 -0 -0 -0 -0 -0 -2 -0 -0 -0 -7 -4 -4 -1 -0 -0 -0 -0 -0 -0 -0 -0 -0 -0 -1 -1 -0 -0 -0 -0 -0 -0 -0 -0 -0 -1 -1 -0 -0 -1 -0 -0 -2 -7 -7 -7 -3 -1 -1 -1 -1 -2 -2 -3 -1 -0 -0 -0
-0 -0 -0 -0 -0 -0 -0 -0 -0 -0 -0 -0 -0 -0 -0 -0 -0 -0 -0 -0 -0 -0 -0 -0 -0 -0 -0 -0 -0 -0 -0 -0 -0 -0 -0 -0 -0 -0 -3 -2 -2 -0 -0 -0 -0 -0 -0 -0 -0 -0 -0 -0 -0 -0 -0 -0 -0 -0 -0 -0 -0 -0 -0 -0 -0 -0 -0 -0 -1 -1 -1 -5 -3 -3 -2 -0 nan nan -1 -0 -0 -0 -1 -0 -0 -0
-0 -0 -0 -0 -0 -0 -0 -0 -0 -0 -0 -0 -0 -0 -0 -0 -0 -0 -0 -0 -0 -0 -0 -0 -0 -0 -0 -0 -0 -0 -0 -0 -0 -0 -0 -0 -0 -0 -0 -0 -0 -0 -0 -0 -0 -0 -0 -0 -0 -0 -0 -0 -0 -0 -0 -0 -0 -0 -0 -0 -0 -0 -0 -0 -0 -0 -0 -3 -3 -3 -4 -6 -0 -0 -0 -0 nan nan -0 -0 -0 -0 -0 -0 -0 -0
-0 -0 -0 -0 -0 -0 -0 -0 -0 -0 -0 -0 -0 -0 -0 -0 -0 -0 -0 -0 -0 -0 -0 -0 -0 -0 -0 -0 -0 -0 -0 -0 -0 -0 -0 -0 -0 -0 -0 -0 -0 -0 -0 -0 -0 -0 -0 -4 -4 -3 -0 -0 -0 -0 -0 -0 -0 -0 -0 -0 -0 -0 -0 -0 -0 -0 -2 -4 -7 -7 -6 -4 -0 -0 -0 -0 -0 -0 -0 -0 -0 -0 -0 -0 -0 -0
-0 -0 -0 -0 -0 -0 -0 -0 -0 -0 -0 nan -0 -0 -0 -0 -0 -0 -0 -0 -0 -0 -0 -0 -0 -0 -0 -0 -0 -0 -0 -0 -0 -0 -0 -0 -0 -0 -0 -0 -0 -0 -0 -0 -0 -0 -0 -5 -5 -0 -0 -0 -0 -0 -0 -0 -0 -0 -0 -0 -0 -1 -1 -0 -0 -0 -0 -7 -10 -10 -6 -0 -0 -0 -0 -0 -0 -0 -0 -0 -0 -0 -0 -0 -0 -1
-0 -0 -0 -0 -0 -0 -0 -0 -0 -0 -0 -0 -0 -0 -0 -0 -0 -0 -0 -0 -0 -0 -0 -0 -0 -0 -0 -0 -0 -0 -0 -0 -0 -0 -0 -0 -0 -0 -0 -0 -0 -0 -0 -0 -0 -0 -0 -3 -3 -0 -0 -0 -0 -0 -0 nan nan -0 -0 -0 -0 -1 -2 -0 -0 -0 -0 -2 -8 -8 -5 -3 -1 -1 -0 -0 -0 -0 -0 -0 -0 -0 -0 -0 -0 -0
-0 -0 -0 -0 -0 -0 -0 -0 -0 -0 -0 -0 -0 -0 -0 -0 -0 -0 -0 -0 -0 -0 -0 -0 -0 -0 -0 -0 -0 -0 -0 -0 -0 -0 -0 -0 -0 -0 -0 -0 -0 -0 -0 -0 -0 -0 -0 -0 -0 nan nan -0 -0 -0 nan -0 -0 -0 -0 -0 -0 -0 -1 -2 -2 -0 -0 -0 -5 -5 -7 -4 -0 -0 -0 -0 -0 -0 -0 -0 -0 -0 -0 -0 -0 -0
Wind_Speed
7 7 7 9 9 9 9 11 12 12 11 10 10 10 10 10 11 12 14 14 14 14 13 13 14 15 17 19 21 22 23 24 25 26 26 27 27 28 29 29 29 29 30 30 30 30 30 30 31 31 31 31 32 32 32 33 33 33 33 34 34 34 34 35 35 35 35 35 35 35 35 35 35 35 35 36 36 36 36 36 36 35 36 36 36 36
7 7 7 9 10 10 9 11 11 11 11 11 10 10 10 11 11 11 11 12 13 13 12 13 14 15 17 17 19 22 23 24 25 25 26 27 27 28 28 29 29 29 30 30 30 30 30 30 31 31 31 31 32 32 32 33 33 33 34 34 34 34 34 35 35 35 35 35 35 35 35 35 35 35 36 36 36 36 36 36 36 35 36 36 36 36
7 7 7 8 9 10 9 10 10 11 11 11 11 11 13 13 12 11 10 10 10 11 11 12 13 14 16 16 18 20 22 23 24 25 26 26 27 28 28 29 29 30 30 30 30 30 30 31 31 31 31 31 32 32 32 33 33 33 33 34 34 34 34 34 35 35 35 35 35 35 35 35 35 36 36 36 36 36 36 36 36 36 36 36 36 36
7 7 7 7 7 8 9 9 9 10 10 10 12 13 14 13 11 10 10 10 10 10 11 12 13 13 13 13 15 18 21 22 23 25 26 26 27 28 29 29 29 30 30 30 30 30 30 30 31 31 31 31 32 32 32 32 33 33 33 33 34 34 34 34 35 35 35 36 36 36 36 36 36 36 36 36 36 36 37 37 36 36 36 36 36 36
7 7 7 7 7 7 8 9 9 9 9 10 11 12 12 11 10 10 10 10 11 11 10 11 12 12 12 11 13 16 20 22 24 25 26 27 27 28 29 29 29 29 30 30 30 30 30 30 30 31 31 31 31 31 32 32 32 33 33 33 34 34 34 35 35 35 36 36 36 36 36 36 36 36 36 36 36 36 36 37 37 36 36 36 36 36
7 7 6 6 6 6 7 7 8 8 8 9 9 10 10 9 9 9 9 10 10 10 10 10 10 11 12 12 13 16 19 21 23 24 25 26 27 28 28 28 29 29 29 29 29 29 29 30 30 30 30 31 31 31 31 32 32 33 33 34 34 34 35 35 35 35 36 36 36 36 36 36 35 35 35 35 36 36 36 36 36 36 36 36 36 36
7 7 6 6 6 6 6 7 7 7 8 8 8 8 8 9 9 9 10 10 9 9 9 10 10 10 11 12 13 15 17 20 21 23 24 25 26 27 27 27 28 28 28 28 28 29 29 29 30 30 30 30 31 31 31 32 32 32 33 33 34 34 34 35 35 35 35 35 35 35 35 35 35 35 35 35 35 35 35 35 36 36 36 36 36 36
8 8 7 7 7 6 6 7 7 7 8 7 8 8 8 8 8 9 10 10 10 9 9 9 9 9 9 10 11 12 13 15 16 18 19 21 22 24 25 26 27 27 28 28 28 28 28 29 29 29 30 30 30 31 31 31 32 32 32 33 33 34 34 34 34 35 35 35 35 35 35 35 35 34 34 34 34 34 34 35 35 35 36 36 36 36
9 9 8 7 7 7 7 7 7 7 7 7 7 8 9 9 9 9 9 9 9 8 8 8 9 9 9 9 10 11 12 13 13 14 15 16 17 19 22 23 24 26 26 26 27 27 27 28 28 28 29 29 30 30 30 31 31 32 32 32 32 32 33 33 33 34 34 34 35 35 35 35 35 34 34 34 34 34 34 34 35 35 35 36 36 36
9 9 9 8 7 7 7 7 7 7 7 7 7 8 8 9 9 9 9 8 8 7 7 8 9 10 10 9 9 10 12 13 15 17 18 18 19 21 21 21 21 22 24 25 25 26 26 26 27 27 28 28 29 29 30 30 31 31 31 31 31 31 32 32 32 33 33 34 34 34 35 35 35 34 34 34 34 34 34 34 34 35 35 35 35 35
9 9 8 8 7 6 7 7 7 7 7 8 8 8 8 8 8 9 10 10 9 8 8 8 9 10 10 10 9 10 11 12 13 15 17 19 20 21 21 20 20 20 22 22 23 24 24 25 26 26 27 28 29 29 29 30 30 30 30 30 30 31 31 31 31 32 32 33 34 34 34 34 34 34 34 34 34 34 34 34 34 34 34 34 35 35
8 7 7 7 7 7 7 7 7 7 7 7 7 8 7 7 7 8 10 10 10 10 10 9 9 8 9 9 9 10 10 10 11 11 12 13 14 14 15 15 15 16 17 18 19 20 22 23 25 26 26 27 28 28 28 28 28 29 29 29 30 30 30 30 31 31 32 32 33 33 34 34 34 34 34 34 34 34 34 34 34 34 34 34 34 34
7 7 7 7 7 7 7 7 7 7 6 7 7 8 8 7 7 7 9 10 10 10 10 10 9 9 9 9 8 9 9 10 10 10 10 10 9 9 9 10 10 11 12 12 13 15 18 21 23 24 25 25 26 27 27 27 27 28 28 28 28 29 29 30 30 31 31 32 33 33 34 34 34 35 35 35 35 35 35 35 35 35 35 34 34 34
8 7 7 8 8 7 7 7 8 8 7 7 7 8 8 8 8 8 9 10 10 10 10 11 11 10 8 8 8 8 9 9 9 9 10 9 8 8 9 10 10 10 10 11 11 13 16 18 18 19 21 23 24 25 24 25 26 26 27 28 28 28 29 30 30 31 31 32 33 33 34 34 34 35 35 35 35 35 35 35 35 35 35 35 34 34
8 8 8 8 8 8 7 7 8 8 8 7 7 8 8 8 9 9 9 10 10 10 10 11 11 10 8 7 7 8 8 9 9 9 10 10 9 8 9 10 10 10 10 11 12 13 15 15 14 14 16 19 21 22 22 24 25 26 27 28 28 29 30 30 30 31 31 32 32 33 33 34 34 34 35 35 35 35 35 35 35 35 35 35 35 35
7 8 9 9 9 8 7 7 7 8 8 8 8 8 9 9 9 9 9 10 10 9 9 10 11 10 8 6 6 7 7 8 9 9 11 11 9 9 9 10 11 11 11 12 12 13 13 13 13 14 15 18 21 23 24 24 26 27 28 28 29 30 30 30 31 31 31 32 32 33 33 33 34 34 34 34 35 35 35 35 35 35 35 35 35 35
8 8 9 9 9 9 8 7 8 8 8 8 8 8 8 9 9 8 8 9 9 8 8 9 9 9 8 7 6 6 7 8 9 10 11 12 11 9 9 10 11 12 12 12 12 12 12 12 12 12 13 17 21 23 25 25 26 27 28 29 29 30 30 30 31 31 31 32 32 32 33 33 33 34 34 34 34 35 35 35 35 35 35 35 35 35
8 8 8 9 9 9 8 8 8 8 8 8 8 8 8 8 8 8 8 8 8 8 9 8 8 8 8 8 7 6 7 8 9 10 12 13 11 9 8 9 11 12 12 12 12 11 11 11 12 12 14 19 22 24 25 26 27 28 28 29 29 30 30 31 31 31 32 32 32 33 33 33 33 33 34 34 34 35 35 35 35 35 36 36 36 36
8 8 8 8 8 8 8 8 8 8 7 8 8 8 9 9 9 8 9 8 8 8 9 9 9 8 8 9 9 8 8 8 9 11 12 13 12 10 9 9 11 12 12 12 11 11 11 11 13 16 19 22 24 25 26 26 27 28 28 29 29 30 30 31 31 32 32 32 33 33 33 33 33 34 34 34 34 34 35 35 35 35 36 36 36 36
9 8 8 8 8 9 9 8 8 8 8 8 8 9 9 9 9 9 9 8 8 8 8 9 9 9 9 10 10 10 9 9 9 10 12 13 12 11 9 10 11 12 12 11 10 10 11 11 13 15 18 21 23 24 25 26 27 28 29 29 30 31 31 32 32 32 32 33 33 33 33 33 33 33 33 34 34 34 34 35 35 35 36 36 36 37
10 10 9 8 8 8 8 8 9 9 10 10 10 9 9 9 10 10 9 9 8 8 7 8 9 10 9 10 11 10 10 9 9 10 10 11 11 10 8 9 10 11 12 11 10 10 11 11 11 12 15 19 22 24 25 27 28 28 29 30 30 31 32 32 32 32 33 33 33 33 33 33 33 33 33 33 34 34 34 34 35 35 35 35 35 36
10 10 10 11 10 9 9 9 10 11 12 11 10 9 8 9 10 10 10 9 8 8 9 10 10 11 11 12 12 11 10 8 8 9 8 10 11 10 8 8 9 11 12 11 11 10 11 11 11 12 15 20 23 25 26 27 28 29 29 30 31 31 32 32 32 32 32 33 33 33 33 33 33 33 33 33 33 33 33 34 34 34 34 33 33 33
11 11 11 11 11 10 10 10 10 10 11 10 10 9 7 8 9 10 10 9 9 9 10 11 12 12 11 11 11 11 9 8 8 8 7 10 12 11 8 8 9 10 11 11 10 11 11 11 11 12 16 21 23 25 26 27 28 29 30 30 31 31 31 32 32 32 32 32 32 32 32 32 32 32 32 32 32 32 32 33 33 32 32 31 30 30
11 11 11 10 10 10 9 9 9 9 9 9 9 9 9 9 9 10 9 9 10 10 11 12 12 13 12 12 11 10 9 8 7 7 6 9 10 10 8 8 9 11 12 10 10 10 11 11 11 11 13 18 22 24 26 27 28 29 29 30 30 30 31 31 31 31 30 30 30 30 30 31 31 31 31 31 31 32 32 32 31 31 30 30 30 31
10 10 10 10 11 11 11 11 11 11 10 9 9 9 10 11 11 12 12 11 11 11 11 12 13 13 11 11 10 9 8 7 7 7 6 7 9 10 9 8 9 11 11 10 10 10 11 11 11 11 12 15 19 23 25 26 27 28 28 29 29 29 29 29 29 29 29 29 29 30 30 30 31 31 31 31 31 31 31 30 29 29 29 30 31 32
14 14 15 16 18 19 21 21 21 20 19 15 12 10 10 12 12 12 12 11 11 11 12 12 13 12 11 10 9 9 7 7 7 6 6 6 8 10 9 8 9 10 11 10 10 10 11 12 12 12 12 13 17 20 23 24 25 26 26 27 27 27 28 28 28 28 29 29 30 30 30 30 30 31 31 31 30 29 28 28 28 29 30 31 31 31
23 23 25 25 26 27 27 27 27 27 27 24 21 18 16 14 13 13 13 11 11 11 11 12 12 12 11 10 9 9 8 7 6 6 7 8 9 9 9 8 8 9 11 10 10 10 12 12 12 12 12 12 13 15 19 21 23 24 24 25 26 27 27 28 28 29 29 29 30 30 30 30 30 30 30 29 29 28 28 28 29 29 30 29 27 25
25 26 26 27 28 28 28 28 27 26 26 25 25 24 19 14 13 13 13 11 11 10 10 11 12 12 11 10 10 9 9 8 7 7 7 7 7 8 8 7 8 9 10 10 10 11 12 12 12 12 11 11 11 12 15 18 20 22 23 24 26 27 27 28 28 28 29 29 29 29 29 29 29 29 29 28 28 28 28 28 29 29 27 24 19 16
21 23 24 25 25 25 24 23 22 22 22 23 23 21 17 13 12 12 12 11 10 10 11 11 11 11 10 11 10 10 9 8 7 7 7 6 6 7 7 7 8 8 8 9 9 10 10 9 9 10 10 11 11 11 12 15 17 18 20 23 24 25 26 27 27 27 28 28 28 28 28 28 28 28 28 28 28 28 28 29 28 26 21 17 15 13
15 16 17 18 18 18 17 16 16 17 18 20 20 19 15 11 10 11 11 10 10 10 11 11 10 10 10 10 10 9 8 7 6 6 6 6 6 7 7 8 8 8 7 7 8 8 8 7 7 8 9 11 11 11 11 12 13 14 15 18 20 21 23 24 25 26 26 26 27 27 27 27 28 28 28 28 28 28 28 28 26 22 15 14 13 13
11 11 10 11 11 11 11 11 11 12 14 16 16 15 12 10 9 9 9 9 9 9 10 10 10 10 9 8 8 8 7 6 5 6 6 5 6 7 8 8 9 8 6 6 7 8 9 7 7 7 9 10 11 11 11 11 12 12 12 13 14 16 19 21 23 23 24 24 25 26 27 27 27 27 27 27 27 27 27 28 25 20 14 13 13 13
8 8 8 8 8 8 9 9 9 10 10 11 11 10 10 9 9 9 8 8 8 8 9 10 10 10 9 9 8 8 7 6 7 7 7 6 6 7 7 8 9 8 7 6 7 8 8 8 7 7 8 10 10 11 11 11 11 11 12 12 12 13 17 18 19 20 20 21 23 24 25 26 26 26 27 27 27 26 27 27 25 20 15 14 13 14
7 7 7 8 8 8 8 8 8 8 9 8 8 8 8 8 9 8 8 8 8 8 9 9 10 10 10 10 10 9 8 8 8 9 9 7 6 6 7 8 9 9 8 8 8 8 7 8 8 9 9 9 9 10 11 11 11 11 12 12 12 12 14 15 15 16 16 17 18 20 22 23 24 24 25 25 25 25 25 26 25 23 18 15 14 14
8 8 8 8 8 8 8 8 9 9 9 8 8 8 8 7 8 8 8 8 8 8 8 9 9 9 10 10 10 10 10 9 9 10 9 7 6 6 8 9 9 9 9 8 8 7 7 9 9 9 9 9 9 9 10 11 11 11 11 11 11 12 12 12 12 13 14 14 14 14 16 17 18 20 20 21 22 22 23 25 26 26 24 20 17 15
8 8 8 8 8 8 9 9 9 9 9 8 8 8 8 7 7 7 8 8 8 8 8 8 8 9 9 9 10 10 10 9 9 10 10 8 7 7 8 8 9 9 9 9 8 7 8 10 10 10 10 10 9 9 8 9 10 10 10 11 11 11 12 12 12 12 13 12 12 12 12 12 13 14 15 17 19 21 23 25 26 27 28 25 22 19
8 8 8 8 8 9 9 9 9 9 9 8 8 7 7 8 8 8 8 8 8 8 8 8 8 9 9 9 10 11 11 10 11 11 11 9 8 8 8 8 8 9 9 9 9 8 9 10 11 11 11 11 10 9 8 9 9 10 11 11 11 12 12 12 12 12 12 12 12 11 11 11 11 12 13 16 19 21 23 25 26 27 28 28 26 24
8 8 8 8 8 8 9 8 8 8 8 7 7 7 8 8 8 8 8 8 8 9 9 10 10 11 11 11 11 12 12 11 11 12 12 11 10 9 9 9 9 9 9 9 9 9 9 10 11 11 11 10 10 9 9 9 10 10 11 11 11 12 12 11 11 11 11 12 12 11 11 11 11 12 12 16 18 19 21 23 24 25 26 27 27 27
8 8 8 8 8 8 8 8 8 7 7 7 8 8 8 9 9 9 9 10 10 11 11 10 11 12 15 15 15 14 14 14 15 16 16 13 12 10 10 10 9 9 8 9 9 9 10 10 11 11 10 10 10 11 11 10 10 11 11 11 11 11 11 11 11 11 10 11 12 13 13 12 12 11 11 12 13 13 14 15 17 19 22 23 24 26
8 9 9 8 8 8 8 8 8 7 7 8 8 8 9 10 10 10 10 10 11 11 12 11 11 11 14 15 16 17 16 17 17 18 17 15 12 10 10 10 10 10 9 9 9 9 10 10 10 10 10 10 11 11 11 10 11 11 12 12 11 11 10 10 10 11 11 11 12 13 12 11 11 10 10 11 11 11 12 12 13 15 16 16 17 20
8 8 8 8 8 8 8 8 8 8 7 8 9 9 9 9 9 9 9 10 10 10 11 11 11 11 11 12 13 14 15 14 15 15 15 13 12 11 10 10 10 10 10 9 9 9 10 10 11 11 11 11 11 11 10 10 11 12 13 11 10 9 10 10 11 11 11 11 11 11 11 10 10 10 11 11 11 11 11 11 12 13 14 13 13 14
8 8 8 8 8 8 8 8 8 8 8 8 8 8 8 8 8 8 8 8 8 8 9 10 10 10 10 11 11 12 13 13 14 14 12 13 13 12 10 10 10 10 10 10 10 10 10 10 11 11 11 11 11 12 12 12 13 14 14 12 11 11 12 12 12 11 10 10 10 10 11 11 12 12 11 12 11 11 11 12 13 13 13 12 12 12
9 8 8 7 7 7 7 7 8 8 8 8 8 8 8 7 7 7 8 8 8 8 8 8 9 9 10 10 10 10 11 11 11 11 11 11 11 11 10 10 10 9 9 10 10 10 10 11 11 11 11 11 11 11 12 13 13 13 13 12 13 13 13 12 10 10 10 10 10 11 12 11 11 11 12 12 12 12 12 13 14 15 14 13 12 11
8 8 7 7 7 7 8 8 8 8 7 7 7 7 7 7 7 8 8 8 8 8 8 8 8 9 10 10 9 9 9 9 10 11 11 10 10 10 11 11 11 10 9 9 10 10 11 11 11 11 11 11 11 12 13 13 13 12 12 12 12 11 9 9 9 9 10 10 11 10 10 10 11 11 11 12 12 12 12 13 15 15 14 13 12 12
7 7 7 7 7 7 7 7 7 7 7 7 8 8 7 7 8 8 8 8 8 9 8 8 8 9 10 10 10 9 8 8 9 10 10 11 11 11 11 12 12 11 10 9 9 9 10 10 11 10 10 10 11 11 12 12 12 12 12 12 12 11 10 10 10 11 11 11 10 10 10 11 11 11 12 12 11 11 11 11 11 12 13 12 12 12
7 7 7 7 7 7 7 7 7 7 7 7 8 8 8 8 8 8 8 8 8 9 8 8 8 8 9 9 9 8 8 8 8 8 8 10 12 12 11 11 10 10 10 9 9 9 9 10 10 11 10 10 11 11 12 12 12 12 12 12 12 12 11 11 11 11 11 11 11 11 11 11 11 11 12 12 11 11 11 11 11 12 12 11 11 12
6 7 7 7 7 7 8 8 7 7 7 8 8 8 7 7 7 7 8 8 9 9 9 8 8 8 9 9 9 8 8 8 7 7 7 8 8 9 9 9 9 9 8 9 9 9 9 10 11 11 11 11 11 12 12 12 12 12 12 12 12 11 11 11 11 11 11 11 11 11 12 12 12 11 12 12 12 12 11 11 11 12 12 12 11 11
7 7 7 7 7 7 7 7 7 7 8 8 8 7 7 7 7 7 8 8 8 9 9 8 8 9 10 9 9 9 9 9 8 8 7 7 8 8 8 8 8 8 8 9 9 10 10 11 11 11 11 12 12 12 12 11 11 11 11 11 11 11 11 10 10 10 10 10 11 11 12 12 11 12 12 12 12 12 11 11 11 11 11 11 11 11
7 7 7 7 7 7 7 7 7 7 8 8 8 7 7 7 8 8 8 8 8 8 8 8 8 9 9 9 9 9 9 9 9 8 8 8 8 7 7 7 7 8 8 9 10 11 11 12 12 12 12 12 12 12 12 11 11 11 11 11 11 11 11 11 10 10 10 10 11 11 11 10 11 11 13 13 12 12 11 11 11 10 10 11 11 11
7 7 7 7 7 7 7 7 7 7 8 8 8 7 7 8 9 9 8 8 8 8 8 9 9 9 9 9 9 9 10 9 9 8 8 8 8 7 7 7 8 8 8 9 10 10 10 11 12 13 12 12 12 12 12 11 11 10 10 10 10 10 11 11 11 10 10 10 11 11 11 10 10 11 12 13 13 13 13 12 11 11 10 10 10 11
7 7 7 7 7 8 8 8 8 8 8 8 8 8 7 7 7 8 8 8 8 8 8 8 9 9 10 9 9 9 9 9 9 8 8 8 7 7 8 8 8 8 8 8 8 8 8 8 9 10 12 13 12 12 11 11 11 10 10 9 9 9 10 10 10 10 10 11 11 11 11 10 10 10 10 11 13 14 14 13 12 11 10 10 11 11
7 7 7 7 7 7 8 7 7 8 8 8 8 8 8 8 7 7 7 7 8 8 8 8 9 9 10 10 9 9 9 9 9 9 8 8 7 8 8 8 8 8 8 8 8 7 7 6 6 7 8 10 11 11 9 9 10 10 10 9 9 9 9 9 10 10 11 11 11 10 11 10 10 10 9 10 12 13 13 13 12 12 11 11 11 12
Wind_Direction
290 294 296 296 294 292 288 288 288 288 289 289 290 292 294 293 291 290 290 289 288 288 287 287 287 288 289 288 288 288 289 289 289 290 290 290 289 289 289 289 289 289 288 288 288 288 288 288 288 289 289 290 290 290 290 290 290 290 290 290 290 290 290 290 290 290 290 290 291 291 290 290 290 289 289 288 288 287 286 285 285 284 283 282 281 280
290 292 293 293 290 288 286 286 286 286 287 290 291 292 293 292 291 290 289 286 285 285 285 286 286 287 287 288 288 288 288 288 288 288 288 288 288 287 287 287 287 287 287 287 287 287 288 288 288 289 289 289 289 290 290 290 290 290 290 290 290 290 290 290 290 290 290 290 290 290 289 289 289 288 288 287 287 286 286 285 284 283 283 282 281 281
294 293 290 289 286 285 285 288 287 286 287 289 290 290 291 290 289 289 288 286 284 283 281 282 284 285 286 287 287 287 287 287 287 287 287 287 287 287 287 287 287 287 287 287 287 287 287 288 288 288 288 289 289 289 289 289 289 289 289 289 289 289 289 289 289 289 289 289 289 288 288 288 288 287 287 287 287 286 286 285 284 284 283 282 282 281
291 289 289 288 285 283 283 287 289 288 287 287 287 287 287 287 286 285 285 285 285 283 281 281 282 283 285 285 285 285 286 286 287 288 288 288 288 288 287 287 287 286 286 286 286 286 287 287 287 287 287 287 287 287 288 288 288 288 288 288 288 288 288 288 288 288 288 288 288 288 287 287 287 287 287 287 287 287 286 286 285 284 284 283 283 282
285 285 288 290 288 286 285 286 287 288 287 285 285 285 284 283 282 282 283 283 283 284 283 282 282 283 283 284 285 286 287 288 288 289 289 289 288 287 287 286 286 286 285 285 285 285 285 286 286 286 286 286 286 286 286 286 286 286 286 286 286 286 286 287 287 287 287 288 288 288 287 287 287 287 287 287 287 287 287 286 286 285 284 284 283 283
284 284 287 287 287 288 289 287 287 287 286 284 282 281 280 279 279 280 282 283 284 285 285 285 284 283 283 284 287 288 289 289 290 289 289 288 288 287 286 286 286 285 285 285 285 285 285 285 286 286 286 286 286 286 285 285 285 285 285 285 285 285 285 286 286 287 287 288 288 288 288 288 288 288 288 288 287 287 287 287 286 286 285 284 284 283
287 286 287 286 285 284 285 284 284 284 284 284 283 282 280 279 280 282 284 285 285 285 285 283 282 282 283 285 288 290 291 291 291 290 289 288 288 287 287 287 286 286 286 285 285 285 285 286 286 286 286 286 285 285 285 284 284 284 284 284 284 284 285 285 286 287 287 288 288 288 288 288 288 288 288 288 288 287 287 287 287 286 286 285 284 284
289 287 284 283 283 282 280 279 279 278 279 282 285 287 287 286 285 285 285 284 282 281 281 282 282 284 287 291 293 294 294 293 292 291 290 289 288 288 287 287 287 286 286 285 285 285 285 285 285 285 285 285 284 284 284 284 284 284 284 284 284 285 285 286 286 287 287 288 288 288 288 288 288 288 288 287 287 287 287 287 286 286 286 285 285 284
284 286 284 281 281 283 282 278 275 274 276 280 284 289 292 292 290 288 285 283 281 282 285 290 292 293 294 296 296 295 293 291 290 290 289 289 288 288 287 287 286 285 285 285 284 284 284 284 284 284 284 284 284 284 284 284 284 285 285 285 285 286 286 286 286 287 287 287 288 288 288 288 288 288 287 287 287 287 286 286 286 286 286 285 285 285
277 279 281 279 276 275 279 283 283 282 282 282 283 284 287 289 290 291 289 288 289 291 294 297 298 299 299 298 297 295 293 290 288 287 286 286 286 285 285 285 284 284 283 284 284 283 283 284 284 284 285 285 285 285 285 285 285 285 286 286 287 287 287 287 287 287 287 287 287 288 288 288 288 288 288 287 287 287 286 286 286 286 285 285 285 285
276 276 278 279 278 276 278 285 288 290 289 285 281 278 275 281 288 295 297 298 300 300 298 297 297 299 300 300 298 295 293 291 289 287 286 285 284 284 283 283 283 283 283 284 285 285 285 286 286 286 286 286 286 286 286 286 286 286 286 287 287 287 287 287 287 287 287 287 287 287 288 288 288 288 288 288 288 287 287 287 286 286 285 285 284 284
279 282 282 284 286 287 286 287 288 289 288 286 284 283 281 285 292 298 300 301 302 303 301 298 296 295 296 298 299 297 294 291 289 289 287 286 285 285 285 285 285 286 287 288 288 288 288 288 288 287 287 286 286 286 285 286 285 286 286 286 287 287 287 287 287 287 287 287 288 288 288 288 289 289 289 288 288 288 287 287 287 286 286 285 284 284
281 283 284 285 286 288 290 291 291 290 288 288 290 293 296 301 302 301 297 297 299 300 301 299 297 295 294 294 295 294 292 290 289 289 289 288 289 290 292 291 292 292 293 292 291 290 289 288 288 287 286 286 285 285 285 285 285 285 286 287 287 288 288 288 288 288 288 289 289 289 289 289 289 289 288 288 288 288 287 287 287 286 286 285 284 284
282 283 284 285 285 286 288 290 291 291 291 292 294 296 299 302 303 300 296 294 295 297 299 297 297 295 295 293 290 289 290 290 290 290 289 290 292 295 298 296 294 294 294 292 290 289 289 288 288 286 285 285 284 285 285 285 286 287 288 289 290 290 290 290 290 289 289 289 289 289 288 288 288 288 288 287 287 287 287 286 286 286 285 285 284 283
283 286 286 285 285 286 288 289 290 291 293 295 297 298 299 298 298 297 295 295 297 299 299 297 294 293 290 290 290 291 292 293 294 294 293 292 293 297 299 296 294 292 291 289 288 287 288 287 286 285 285 284 285 285 287 288 290 290 291 291 291 291 290 290 290 289 289 288 288 288 287 287 287 287 287 287 287 287 287 287 286 286 286 285 285 284
283 283 283 283 284 285 287 290 292 292 293 295 297 297 297 296 296 295 295 295 298 300 299 298 297 294 288 287 291 296 300 299 298 297 296 293 293 295 299 296 294 291 288 286 286 286 287 286 285 285 285 286 287 288 290 291 291 292 291 291 291 291 290 290 289 289 288 288 287 287 287 287 287 287 287 287 288 288 288 288 288 288 287 287 286 285
278 278 278 281 283 285 288 288 287 288 292 294 294 293 292 292 293 293 290 292 295 296 295 296 298 299 298 297 298 302 307 304 301 298 295 292 292 295 298 293 290 287 286 284 284 285 287 286 285 285 285 287 289 291 291 292 291 291 291 290 290 290 290 289 289 289 288 288 288 287 287 287 287 287 288 288 288 288 289 289 289 289 288 288 287 287
272 274 277 279 282 284 287 287 286 287 289 290 290 289 287 287 288 289 289 291 292 292 293 292 291 293 298 299 302 310 317 308 303 298 294 290 290 292 293 286 283 282 282 282 283 285 286 285 285 285 286 289 291 291 292 291 291 290 290 290 290 289 289 289 289 289 289 288 288 288 287 287 287 287 287 287 287 287 288 288 288 288 288 287 287 287
272 272 274 275 277 279 281 281 283 285 286 286 288 289 288 288 288 289 289 289 287 286 286 287 286 286 289 291 298 308 318 309 302 296 292 289 289 290 292 285 282 281 281 282 284 286 287 286 285 286 287 289 290 291 291 290 290 290 290 290 290 290 290 289 289 289 288 288 288 287 286 286 286 286 285 285 285 285 285 286 286 286 286 286 286 286
271 269 267 273 276 278 276 275 277 280 283 285 287 289 289 291 291 290 287 285 281 280 281 283 284 286 288 291 296 305 314 309 299 291 287 287 288 290 293 288 285 283 283 283 286 289 289 288 288 289 289 290 290 291 291 291 291 291 291 291 291 290 290 289 288 288 287 286 286 285 285 284 284 284 284 284 284 284 284 284 285 285 285 286 286 286
268 266 262 265 270 272 272 274 276 279 283 286 288 288 289 290 289 286 283 282 282 281 280 280 283 287 294 295 299 303 310 303 295 288 287 286 286 288 292 290 288 286 286 287 289 291 290 289 289 289 289 291 292 292 292 292 292 292 291 290 290 289 288 288 287 286 286 285 284 284 284 284 284 284 284 285 285 284 284 284 285 285 285 286 286 287
264 264 264 263 263 265 268 272 275 278 281 284 284 284 285 286 285 284 283 283 282 281 281 283 288 293 297 295 296 298 300 291 285 285 289 287 286 287 292 291 289 288 288 290 292 293 292 291 290 290 291 292 293 293 293 292 291 290 290 289 289 288 287 287 286 285 284 284 283 283 283 284 285 285 285 285 285 285 285 285 286 286 287 288 289 290
258 261 264 263 263 264 268 273 276 278 280 279 278 277 278 278 278 279 279 279 281 284 289 292 293 293 291 289 289 290 290 285 283 283 285 284 286 289 296 295 292 290 288 292 295 296 295 292 292 292 293 293 293 292 292 291 290 289 289 288 288 287 287 286 285 285 284 284 284 285 285 286 287 287 287 287 288 288 288 288 289 289 291 292 294 296
254 258 261 261 262 263 267 270 273 276 278 277 275 273 269 267 268 271 278 285 291 295 297 296 293 290 287 287 287 287 288 287 286 284 280 281 284 290 297 298 295 291 289 293 296 297 296 292 291 292 292 292 292 292 291 290 289 289 288 287 287 286 286 285 285 285 286 287 287 288 289 290 291 291 291 291 291 291 292 292 293 294 295 296 297 297
253 255 257 258 259 260 262 265 268 271 273 272 269 266 266 270 276 282 290 294 297 297 296 294 291 290 290 291 289 288 289 290 289 285 281 282 285 289 294 296 295 292 291 294 296 296 294 293 292 293 293 292 291 291 290 289 288 288 287 287 286 286 286 287 288 289 290 291 292 293 293 294 294 294 294 294 293 293 293 295 296 297 298 299 299 298
256 257 258 260 262 263 264 266 268 271 273 274 276 280 286 290 293 294 294 294 294 295 294 292 290 289 292 292 291 290 293 294 290 286 283 284 286 288 291 294 293 291 291 294 296 297 295 294 295 295 294 292 291 290 289 288 287 287 287 287 288 288 289 291 292 293 294 294 295 295 295 295 295 294 294 294 294 295 296 298 299 300 300 300 299 298
260 262 263 265 266 267 269 271 273 275 278 280 284 288 293 296 296 294 290 292 294 295 293 291 290 291 292 291 290 291 296 296 292 286 283 282 283 286 290 293 294 293 294 295 297 297 296 295 295 295 293 291 290 289 288 289 289 290 290 291 292 293 293 293 294 295 294 295 295 295 295 295 295 295 295 296 297 298 299 300 301 301 301 300 299 297
262 264 265 267 269 271 273 276 277 279 281 283 285 287 288 290 290 288 287 291 294 293 288 287 288 291 293 292 291 293 295 293 289 284 281 279 278 282 290 297 299 298 298 297 297 295 293 292 292 292 291 291 291 291 292 294 295 295 295 294 294 294 294 293 293 294 294 295 295 296 296 296 297 297 297 298 299 300 300 301 301 301 300 299 297 294
265 266 268 269 271 272 274 276 277 279 280 282 283 285 286 285 284 283 285 291 292 290 284 284 285 287 290 291 292 291 289 285 283 284 286 283 281 284 295 300 301 301 302 300 297 293 287 286 288 290 292 294 296 298 299 300 299 298 296 295 293 293 293 293 293 294 294 295 296 297 297 298 298 298 299 299 300 300 300 300 301 300 300 298 296 294
269 269 269 270 271 272 274 276 277 279 281 283 284 285 284 281 278 279 283 287 287 284 282 282 283 284 287 291 291 289 283 281 286 296 305 297 290 291 299 299 300 301 305 303 300 296 289 286 288 292 297 300 302 302 302 301 299 297 295 293 292 292 292 293 294 295 296 297 297 298 299 299 299 299 299 300 300 300 300 301 301 301 300 298 297 295
272 271 271 273 275 278 281 282 283 284 284 285 285 284 282 278 276 276 279 280 279 278 278 279 280 281 282 286 287 286 284 289 303 316 321 304 293 293 299 298 297 298 300 300 299 299 298 296 297 300 303 303 302 301 299 297 296 295 294 293 292 292 292 294 295 296 297 298 299 299 299 299 300 300 299 299 299 299 300 301 301 301 300 299 298 296
275 277 281 285 287 288 288 287 286 285 284 284 283 281 278 276 274 273 274 274 273 272 273 274 275 276 275 274 274 277 283 293 305 313 314 300 291 291 295 294 294 294 295 289 288 291 296 301 305 307 306 302 299 297 296 295 295 294 295 294 292 292 294 296 298 298 299 299 299 299 299 299 299 299 298 298 298 298 299 300 301 301 301 300 298 297
285 287 290 290 290 288 286 284 283 283 282 281 280 279 277 275 273 272 271 270 268 266 267 269 271 272 272 270 270 272 278 286 297 304 305 298 292 291 293 292 292 293 294 286 282 281 284 293 301 305 303 299 296 296 295 295 295 294 294 294 293 294 297 299 300 300 300 300 299 299 299 298 297 297 296 296 297 297 298 299 300 301 301 300 298 297
290 289 289 289 287 285 283 283 282 282 281 280 280 279 279 277 275 273 271 268 265 263 262 264 267 271 274 274 274 275 277 283 292 299 302 297 292 290 292 291 291 292 293 290 287 286 285 290 295 299 300 297 295 293 294 295 294 294 293 294 295 297 299 301 301 300 300 299 298 298 297 296 295 295 294 295 296 297 298 299 300 300 300 299 298 297
289 288 288 288 287 286 285 285 285 285 284 284 283 283 282 280 279 276 274 270 267 263 260 261 263 268 273 277 279 281 281 286 293 298 298 293 290 289 290 288 289 291 292 292 294 296 293 293 294 296 297 297 295 292 291 293 294 295 294 295 296 297 299 301 300 300 299 297 296 295 294 293 293 293 294 295 296 297 298 299 300 299 299 298 297 296
289 287 288 288 288 288 288 288 288 288 287 286 286 285 285 283 281 279 277 274 272 269 267 266 266 267 269 273 276 279 283 287 291 293 291 287 285 285 284 283 285 289 291 294 296 297 295 294 294 294 294 295 295 295 294 295 296 297 296 297 297 297 297 298 298 297 296 295 294 293 293 293 293 293 294 296 298 298 299 299 300 299 298 297 296 295
288 288 288 289 290 291 291 290 289 288 288 288 289 289 288 287 285 284 282 281 279 277 275 274 272 270 268 269 270 273 278 283 285 285 283 281 279 277 276 278 282 286 290 294 296 296 294 293 294 293 292 291 293 296 300 302 301 299 297 298 298 298 297 297 296 294 293 292 293 293 295 295 295 295 295 298 299 300 300 299 299 298 298 297 296 294
287 288 290 291 291 291 289 289 288 289 290 292 293 294 294 292 290 289 287 284 281 279 277 274 272 270 268 268 268 269 272 275 276 277 276 274 272 271 272 277 281 285 287 288 290 291 292 292 293 294 293 291 291 293 298 301 302 301 299 298 297 296 296 296 295 294 293 294 295 295 295 295 295 296 297 300 301 301 300 299 298 298 297 296 295 294
290 291 292 292 292 291 290 289 290 292 294 296 297 297 296 293 290 288 285 281 278 275 271 270 270 270 269 269 269 269 270 271 272 272 271 269 267 267 272 279 283 285 286 284 283 284 285 286 288 290 292 293 294 294 296 298 299 299 300 299 297 294 293 296 297 298 297 296 295 295 294 295 296 298 299 301 302 301 300 298 298 297 298 297 296 294
291 291 290 290 289 288 288 289 292 296 298 298 297 295 293 290 287 283 279 276 274 273 271 271 272 272 272 272 271 270 270 269 268 268 268 266 266 268 273 278 282 284 285 282 280 279 279 280 282 283 286 289 292 295 298 297 297 298 300 300 299 298 299 301 300 298 295 293 292 293 295 297 299 300 301 301 301 300 299 298 297 297 297 297 296 295
288 287 287 288 288 288 288 291 295 298 298 297 294 291 288 286 285 284 283 281 280 280 280 279 278 277 275 272 271 270 269 267 266 265 265 266 267 269 271 274 276 279 281 280 278 277 276 277 280 281 283 286 289 292 292 293 294 296 298 296 295 296 299 299 297 294 292 292 294 296 298 300 301 301 301 301 299 298 297 296 296 295 295 293 291 291
284 284 284 286 287 289 291 294 295 294 292 289 287 285 285 287 289 291 293 292 290 288 286 285 284 283 281 278 274 272 269 267 265 264 264 263 263 263 266 269 271 274 276 278 277 277 275 277 279 282 285 288 291 291 291 291 292 293 293 292 293 295 296 294 293 294 296 298 299 300 301 301 302 302 302 301 300 297 296 294 293 292 292 290 287 285
279 280 282 286 289 291 293 292 290 288 286 284 284 284 287 291 293 294 293 291 290 289 287 286 286 286 286 285 283 279 273 269 268 268 269 268 267 266 268 269 271 272 274 276 277 278 278 279 279 281 284 287 287 287 288 290 291 291 290 290 293 296 297 297 299 300 300 299 299 300 301 302 303 303 302 300 298 296 295 292 291 289 288 287 285 284
279 281 285 287 287 287 287 285 285 286 287 288 288 289 291 292 292 291 289 288 287 288 288 288 288 286 284 284 284 284 282 278 275 274 274 274 273 272 272 271 271 270 269 271 275 279 283 282 281 281 282 283 284 284 285 287 289 290 290 289 289 289 288 295 300 303 301 300 300 302 304 305 304 303 300 298 296 294 293 291 289 287 286 285 284 283
281 282 283 284 284 285 285 285 287 289 290 289 289 290 291 292 290 288 286 287 288 288 289 290 289 287 284 285 287 288 288 286 283 281 279 278 278 277 275 273 272 270 268 267 270 275 281 284 285 285 285 283 282 281 282 284 286 287 287 288 288 287 285 291 296 299 301 302 303 305 307 307 306 303 300 298 296 295 294 292 291 289 287 286 285 284
275 277 280 281 282 284 284 287 289 290 289 288 288 288 290 291 290 287 286 287 288 288 287 287 286 284 285 288 291 292 291 290 289 288 288 287 285 283 279 276 274 273 272 271 271 272 274 277 282 285 288 285 281 279 277 280 283 285 287 289 291 291 292 294 296 299 302 303 305 306 309 308 306 302 299 298 298 297 295 293 291 290 289 289 288 287
275 277 280 282 283 284 285 288 290 290 289 288 289 290 291 292 291 290 288 287 287 287 287 285 283 282 283 287 289 291 292 293 294 295 295 294 293 289 286 283 281 279 278 277 276 275 274 273 275 278 281 282 282 280 278 279 280 283 286 291 294 295 296 298 300 302 304 304 305 307 310 309 306 302 299 299 298 297 295 293 292 291 291 291 291 291
276 278 281 284 285 286 287 288 289 289 288 289 290 291 292 293 293 292 290 289 288 288 287 287 285 283 283 284 286 288 291 294 296 298 298 298 297 295 294 294 292 290 286 283 281 278 276 272 269 268 269 272 275 278 280 281 281 282 286 291 294 297 298 300 302 305 306 305 305 306 309 308 306 304 302 301 299 298 297 297 296 295 294 294 294 294
277 279 281 283 285 286 287 288 288 289 288 290 292 293 293 293 293 292 290 289 288 287 287 286 286 285 284 284 286 289 291 293 295 297 298 299 301 302 303 303 302 299 295 290 286 283 279 273 266 261 258 259 264 270 276 280 282 284 286 291 295 298 300 302 305 307 308 306 306 306 306 304 302 301 301 300 299 299 299 300 300 300 299 299 298 299
278 279 281 282 283 284 286 287 288 289 289 291 292 293 294 293 292 290 288 287 286 285 284 285 285 285 285 287 289 292 294 295 295 296 298 301 304 306 307 308 307 305 302 298 295 292 288 282 271 261 252 250 252 259 270 278 283 288 291 295 298 301 303 304 306 307 309 309 309 308 307 304 301 300 298 298 298 299 301 301 302 303 304 304 304 303
279 279 280 280 281 282 284 285 286 287 288 290 291 293 294 293 292 290 288 286 285 285 284 284 284 284 285 289 291 293 294 295 296 297 298 302 305 308 308 309 309 309 307 306 305 304 302 299 293 280 263 252 249 252 266 280 290 295 298 300 302 305 304 304 305 307 309 309 309 309 307 305 304 303 302 300 301 301 302 303 304 306 309 309 308 306